Location: LewisvilleTX
(33.0462°N, 96.9942°W)
Time: 22:34:05
(UTC+00:00)

Envisat - Pass Details

Date: 06 October 2020
Orbit: 764 x 766 km, 98.1° (Epoch: 26 October)

Event Time Altitude Azimuth Distance (km) Brightness Sun altitude
Rises 01:11:23 0° 218° (SW) 3,218 6.7 -14.4°
Reaches altitude 10° 01:15:46 10° 254° (WSW) 2,298 6.6 -15.3°
Maximum altitude 01:17:00 11° 268° (W) 2,242 6.8 -15.6°
Drops below altitude 10° 01:18:15 10° 283° (WNW) 2,302 6.8 -15.9°
Sets 01:22:40 0° 320° (NW) 3,234 6.9 -16.8°
